Location: ?????????
(53.2086°N, 54.0693°E)
Time: 03:24:46
(UTC+00:00)

Okean-O - Pass Details

Date: 08 December 2019
Orbit: 639 x 641 km, 98.2° (Epoch: 25 January)

Event Time Altitude Azimuth Distance (km) Brightness Sun altitude
Rises 13:09:58 0° 138° (SE) 2,940 5.9 -8.8°
Reaches altitude 10° 13:12:18 10° 130° (SE) 2,035 5.0 -9.1°
Maximum altitude 13:16:20 36° 64° (ENE) 1,021 3.2 -9.7°
Drops below altitude 10° 13:20:25 10° 359° (N) 2,048 5.0 -10.2°
Sets 13:22:45 0° 351° (N) 2,962 5.9 -10.6°
